237P/LINEAR (2002)

Japanese version
Home page
Updated on June 29, 2010

---------------------------------------------------------------------

* Profile

Designation 237P/2002 LN13
Discovery Date June 6, 2002
Magnitude 18.7 mag
Discoverer Lincoln Laboratory Near-Earth Asteroid Research project

* Orbital Elements

Epoch 2002 Sept. 3.0 TT = JDT 2452520.5
T 2002 Sept. 10.75398 TT                                MPC
q   2.4249455            (2000.0)            P               Q
n   0.13627978     Peri.   20.46222     +0.03842733     +0.96343254
a   3.7398005      Node   252.49414     -0.95112276     -0.04611042
e   0.3515843      Incl.   16.14441     -0.30641285     +0.26395372
P   7.23

* Magnitudes Graph

        H = 15.0  G = 0.15

---------------------------------------------------------------------

The orbital elements are published on M.P.E.C. 2010-L93.
The magnitudes graphs are made with Comet for Windows.

---------------------------------------------------------------------

Copyright(C) Seiichi Yoshida (comet@aerith.net). All rights reserved.